Regional Weather Roundup
Issued by NWS

Home | Current Version | Previous Version | Graphics & Text | Print | Product List | Glossary On
Versions: 1 2 3 4 5 6 7 8 9 10 11 12 13 14 15 16 17 18 19 20 21 22 23 24 25 26 27 28
000
ASUS45 KTFX 251610
RWRMT
MONTANA REGIONAL WEATHER ROUNDUP
NATIONAL WEATHER SERVICE GREAT FALLS MT
900 AM MST SAT FEB 25 2017

NOTE: "FAIR" INDICATES FEW OR NO CLOUDS BELOW 12000 FEET WITH NO
SIGNIFICANT WEATHER AND/OR OBSTRUCTIONS TO VISIBILITY.

MTZ001>007-043-251700-
WEST OF THE DIVIDE

CITY           SKY/WX    TMP DP  RH WIND       PRES   REMARKS
KALISPELL      MOSUNNY    6   3  87 CALM      29.95F
MISSOULA       MOSUNNY   19  15  84 W5        30.02F
BUTTE          CLOUDY     9   5  84 CALM      29.88F
MULLAN PASS    LGT SNOW  13  11  92 VRB6      29.85S VSB 3/4 WCI   4
ANACONDA         N/A     21   5  49 W13       29.90F WCI   9
DEER LODGE       N/A     21   7  53 S3        29.93F
EUREKA           N/A     19  12  73 SE6       29.95S WCI  11
HAMILTON         N/A     25  16  68 S6        30.00S WCI  18
LIBBY            N/A     18  12  79 CALM      29.98F
PLAINS           N/A     16   9  74 CALM      30.04
RONAN            N/A     22  14  71 SE2       30.01F
$$

MTZ008-052>055-251700-
SOUTHWEST MONTANA

CITY           SKY/WX    TMP DP  RH WIND       PRES   REMARKS
BOZEMAN        SUNNY     18  15  88 CALM      29.92S
DILLON         SUNNY     19   9  65 SW16      29.91S WCI   4
W YELLOWSTONE  CLOUDY    10   3  72 W3        29.87S
ENNIS          CLOUDY    18   9  68 S13       29.95S WCI   4
$$

MTZ009-010-012-014-046-048-049-054-251700-
EAST SLOPES AND CENTRAL MONTANA

CITY           SKY/WX    TMP DP  RH WIND       PRES   REMARKS
CUT BANK       SUNNY     20  12  71 W14       29.77F WCI   7
GREAT FALLS    MOSUNNY   25  12  58 SW20G26   29.82F WCI  11
MALMSTROM AFB  SUNNY     25  14  61 SW21G28   29.84F WCI  11
HELENA         PTSUNNY   27  10  49 W7        29.90F WCI  19
AUGUSTA          N/A     23  10  55 W21       29.79F WCI   8
BOWMANS CRNR     N/A     21  10  64 SW17      29.80F WCI   6
CHOTEAU          N/A     27   9  46 SW7G17    29.82F WCI  19
CONRAD           N/A     21  15  78 SW7       29.84S WCI  12
POWER            N/A     23  13  65 SW20      29.81F WCI   8
RAYNESFORD       N/A     23   8  54 SW25G32   29.81F WCI   6
ULM              N/A     26  12  56 MISG      29.85F
$$

MTZ011-013-016-021-045-047-050-051-251700-
NORTH CENTRAL MONTANA

CITY           SKY/WX    TMP DP  RH WIND       PRES   REMARKS
HAVRE          CLOUDY    22  18  85 SW15      29.83F WCI   9
LEWISTOWN      SUNNY     19   9  65 SW18      29.81F WCI   4
N BAR RANCH      N/A     10   3  72 CALM      29.82F
CHINOOK          N/A     21  21 100 CALM      29.85F
FORT BENTON      N/A     25  16  68 MISG      29.86F
GEYSER           N/A     23  10  58 W17       29.80F WCI   9
GRASS RANGE      N/A     19  12  75 W10       29.79F WCI   7
JUDITH GAP       N/A     16   3  56 W7        29.80F WCI   6
ROY              N/A     24  13  62 MISG      29.80F
WINIFRED         N/A     21  13  72 SW14      29.81F WCI   8
$$

MTZ017>020-022>027-061-062-251700-
NORTHEAST MONTANA

CITY           SKY/WX    TMP DP  RH WIND       PRES   REMARKS
GLASGOW        CLOUDY    24  22  91 SW6       29.84F WCI  17
JORDAN           N/A     24  20  84 W8        29.86F WCI  15
SIDNEY         CLOUDY    22  20  92 S6        29.90F WCI  14
WOLF POINT     LGT SNOW  20  16  84 NW3       29.88F FOG
PLENTYWOOD       N/A     19  18  93 CALM      29.86F VSB 3/4
POPLAR           N/A     18  14  86 CALM      29.89F
SCOBEY           N/A     17  10  74 CALM      29.83
$$

MTZ028>42-056>058-251700-
SOUTHCENTRAL AND SOUTHEAST MONTANA

CITY           SKY/WX    TMP DP  RH WIND       PRES   REMARKS
BAKER          CLOUDY    23  20  88 W15       29.86F WCI  10
BILLINGS       PTSUNNY   23  19  85 SW12      29.88F WCI  12
LIVINGSTON     CLOUDY    23  13  65 W18       29.86F WCI   9
MILES CITY     PTSUNNY   26  21  81 W7        29.89F WCI  18
BIG TIMBER     FOG       21  18  86 W17       29.88F VSB 1/4 WCI   7
EKALAKA          N/A     24  18  78 W13       29.83  WCI  12
FORSYTH          N/A     27  23  86 CALM      29.88F
HARLOWTON        N/A     20  13  75 W17       29.83F WCI   6
LAUREL           N/A     23  14  68 SW8       29.87F WCI  14
$$

REGIONAL REPORTS...DAKOTAS

CITY           SKY/WX    TMP DP  RH WIND       PRES   REMARKS
WILLISTON      LGT SNOW  19  17  92 CALM      29.89F FOG
MINOT          CLOUDY    22  17  81 W14       29.87F WCI   9
DICKINSON      CLOUDY    22  19  89 NW10      29.83F WCI  11
BEACH            N/A    N/A N/A N/A MISG        N/A
CROSBY         LGT SNOW  16  16 100 N8        29.90F WCI   5
TIOGA            N/A     18  18 100 NW3       29.86F
WATFORD CITY   MIX PCPN  19  19 100 SW5       29.88F
BISMARCK       LGT SNOW  24  21  88 W3        29.88F VSB 1
GRAND FORKS    CLOUDY    27  17  66 W10       29.85F WCI  17
FARGO          CLOUDY    25  18  74 SW13      29.89F WCI  14
BUFFALO SD       N/A     29  21  72 W18       29.78F WCI  16
RAPID CITY     CLOUDY    27  16  63 W3        29.88F
$$

REGIONAL REPORTS...WYOMING/IDAHO/WASHINGTON

CITY           SKY/WX    TMP DP  RH WIND       PRES   REMARKS
GILLETTE       CLOUDY    23  18  81 W9        29.86F WCI  13
SHERIDAN       CLOUDY    22  17  81 S6        29.87F WCI  14
BUFFALO WY     CLOUDY    20  13  74 S9        29.83F WCI   9
CODY           CLOUDY    25   4  40 W8        29.85F WCI  16
YELLOWSTONE LA   N/A      6   3  87 CALM      29.82F
IDAHO FALLS    CLOUDY    11   7  84 SW7       30.03R WCI   0
SALMON         PTSUNNY   23   9  54 SW16      30.02S WCI  10
BOISE          SUNNY     25  18  74 SE5       30.16R
SPOKANE        MOSUNNY   15  12  88 SW7       30.09R WCI   5
$$

REGIONAL REPORTS...ALBERTA

CITY           SKY/WX    TMP DP  RH WIND       PRES   REMARKS
EDMONTON       MOSUNNY   14   9  79 SW10      29.74F WCI   1
CALGARY        PTSUNNY   14  10  85 SW8       29.74F WCI   3
LETHBRIDGE     MOSUNNY   18  14  86 NE3       29.78  FOG
MEDICINE HAT   PTSUNNY   14  10  85 E3        29.84F
WATERTON GATE    N/A     23   7  50 SW20G30     N/A  WCI   8
CARDSTON         N/A     23   7  50 W12         N/A  WCI  12
MILK RIVER       N/A     19  12  73 NW9         N/A  WCI   9
$$

REGIONAL REPORTS...SASKATCHEWAN

CITY           SKY/WX    TMP DP  RH WIND       PRES   REMARKS
SWIFT CURRENT  CLOUDY    10   9  92 SW6       29.81F WCI   1
REGINA         PTSUNNY   10   5  79 NW12      29.87F WCI  -4
SASKATOON      CLOUDY     9   1  72 W8        29.90F WCI  -4
CYPRESS HILLS    N/A     12   9  85 S1          N/A
VAL MARIE        N/A     18  16  93 NE10        N/A  WCI   6
ROCKGLEN         N/A     14  12  92 NE2         N/A
$$




USA.gov is the U.S. government's official web portal to all federal, state and local government web resources and services.